TMSAT

Satellite information

Favourite Embed

Satellite Type and Status

PAYLOADIN ORBIT

Key statistics

Satellite TMSAT at a glance.

Uptime

9800

Days in orbit

Revolutions

≈ 14.3

Per day

Orbit

SSO

Sun Synchronous Orbit

Inclination

98.9

Latest

Satellite identification and parameters

Extended collection of information and parameters for TMSAT.

Object identification

Identified? True

Debris? False

Object name: TMSAT

International designator: 1998-043C

Object number (NORAD): 25396

Object ID (CCSDS): 25396

Country: THAILAND (THAI)

Current information (Y/N): Y

RCS size: MEDIUM

Orbital parameters

Period: 101.013 minutes

Inclination: 98.9457 deg

SMA: 7184.744 km

Apoapsis: 807.757 km

Periapsis: 805.461 km

RAAN: 104.7777 deg

Eccentricy: 0.0001598

Argument of periapsis: 242.5518 deg

Mean anomaly: 117.5498 deg

Mean motion: 14.2556104 rev/day

Mean motion (dot): 0.00000227 rev/day2

B* drag term: 0.00011573 1/REarth

Two-line elements (TLE)

Creation date: May 8, 2025, 3:01 a.m.

Reference frame: TEME

Reference center: EARTH

Epoch: May 7, 2025, 9:01 p.m. UTC

TLE line 0: 0 TMSAT

TLE line 1: 1 25396U 98043C 25127.87572151 .00000227 00000-0 11573-3 0 9993

TLE line 2: 2 25396 98.9457 104.7777 0001598 242.5518 117.5498 14.25561040394247

Live tracking on map

Real-time ground track for satellite TMSAT.

In-orbit conjunctions

There are no conjunctions computed for TMSAT, at the moment. Check back to stay up to date, as we update our databases every day.

Go to all conjunctions

Associated space launch

Resurs-O1 N4 or Resurs-O1 2 is the fourth earth observation satellite in the Russian Resurs-O1 program.

TMSAT was lifted into orbit during the mission ‘Zenit-2 | Resurs-O1’, on board a Zenit-2 space rocket.

The launch took place on July 10, 1998, 6:30 a.m. from 45/1.

For more information about the launch, click the button.

Launch to space Zenit-2 | Resurs-O1
Zenit-2 | Resurs-O1

Agency: N/A

Status: Launch Successful

Launch date: July 10, 1998, 6:30 a.m. UTC

Rocket: Zenit-2

Launch pad: 45/1

Location: Baikonur Cosmodrome, Republic of Kazakhstan

...

Latest news about this satellite

There are no fresh news available about this satellite. Check back as we update our databases every day.


Newsletter sign-up

Weekly statistics, charts and insights to help you stay on top of the space industry.